Regional Weather Roundup
Issued by NWS Albany, NY

Home | Current Version | Previous Version | Graphics & Text | Print | Product List | Glossary Off
Versions: 1 2 3 4 5 6 7 8 9 10 11 12 13 14 15 16 17 18 19 20 21 22 23 24 25 26 27 28 29 30 31 32 33 34 35 36 37 38 39 40 41 42 43 44 45 46 47 48

000
ASUS41 KALY 261110
RWRALY

NEW YORK STATE HOURLY WEATHER ROUNDUP
NATIONAL WEATHER SERVICE ALBANY NY
600 AM EST MON JAN 26 2015

NOTE: "FAIR" INDICATES FEW OR NO CLOUDS BELOW 12,000 FEET WITH NO
SIGNIFICANT WEATHER AND/OR NO OBSTRUCTIONS TO VISIBILITY.

NYZ032-033-038>043-046>054-057>066-NYZ062>081-261200-
EAST


CITY           SKY/WX    TMP DP  RH WIND       PRES   REMARKS
ALBANY         CLOUDY    10  -2  58 N8        30.10F WCI  -2
GLENS FALLS    MOCLDY     4  -2  76 N3        30.13R
POUGHKEEPSIE   CLOUDY    18   1  47 N8        30.05F WCI   8
NEWBURGH       CLOUDY    16   3  57 NE12      30.02F WCI   3
MONTGOMERY     CLOUDY    16   2  54 NE9       30.02F WCI   4
WHITE PLAINS   CLOUDY    20   5  52 E6        29.99S WCI  12
ISLIP          CLOUDY    26  11  52 NE14G20   30.00F WCI  14
NEW YORK CITY  FLURRIES  24  12  60 NE18      30.01F WCI  10
CENTRAL PARK   CLOUDY    24   9  52 NE13G20   30.02F WCI  12
$$

NYZ005>009-017-018-044>046-055-056-261200-
CENTRAL


CITY           SKY/WX    TMP DP  RH WIND       PRES   REMARKS
FULTON         MOCLDY     2  -6  69 E3        30.03F
SYRACUSE       MOCLDY     4  -2  76 E8        30.02F WCI  -9
ROME           MOCLDY    -1  -7  75 CALM      30.07F
ELMIRA         CLOUDY    14  -2  49 E7        29.92F WCI   4
BINGHAMTON     CLOUDY     7  -3  64 E6        29.86F WCI  -3
MONTICELLO     CLOUDY    12   1  62 E10       29.92S WCI  -1
$$

NYZ026>034-041>043-261200-
NORTH


CITY           SKY/WX    TMP DP  RH WIND       PRES   REMARKS
WATERTOWN      MOCLDY     0  -8  69 NE12      30.09S WCI -17
FORT DRUM      NOT AVBL
MASSENA        PTCLDY   -13 -19  75 CALM      30.17S
SARANAC LAKE   PTCLDY   -22 -27  77 CALM      29.95S
PLATTSBURGH    PTCLDY    -2  -8  76 W3        30.16R
$$

NYZ001>004-010>016-019>021-261200-
WEST


CITY           SKY/WX    TMP DP  RH WIND       PRES   REMARKS
NIAGARA FALLS  CLOUDY    13   4  67 E12       29.95S WCI  -1
BUFFALO        CLOUDY    13   2  61 NE16      29.93S WCI  -3
DUNKIRK        CLOUDY    15   3  59 E13       29.88S WCI   1
JAMESTOWN      CLOUDY    12   7  79 E10       29.75F WCI  -1
WELLSVILLE     FLURRIES   9   2  73 E12       29.79F WCI  -6
ROCHESTER      CLOUDY    11  -2  56 E12       30.00F WCI  -3
PENN YAN       CLOUDY    13   2  61 NE5       29.94F WCI   5
$$

             KEY
       WCI = WIND CHILL INDEX
       VSB = VISIBILITY
       HX  = HEAT INDEX
$$


USA.gov is the U.S. government's official web portal to all federal, state and local government web resources and services.